West Hythe, United Kingdom

10:37 PM GMT on January 16, 2017 (GMT +0000)
Lydd

Weather History for EGMD - October, 2012

Change the Weather History Date:

Wednesday, October 24, 2012

  Actual Average Record
Temperature  
Mean Temperature 55 °F -  
Max Temperature 57 °F - - ()
Min Temperature 53 °F - - ()
Degree Days  
Heating Degree Days 10    
Growing Degree Days 5 (Base 50)    
Moisture  
Dew Point 55 °F    
Average Humidity 95    
Maximum Humidity 100    
Minimum Humidity 88    
Precipitation  
Precipitation 0.00 in - - ()
Sea Level Pressure  
Sea Level Pressure 30.08 in    
Wind  
Wind Speed 10 mph ()    
Max Wind Speed 16 mph    
Max Gust Speed -    
Visibility 1.8 miles    
Events      
T = Trace of Precipitation, MM = Missing Value Source: Averaged Metar Reports

Daily Weather History Graph

Daily Weather History Graph

Search for Another Location

Airport or City:

Trip Planner

Search our weather history database for the weather conditions in past years. The results will help you decide how hot, cold, wet, or windy it might be!

Date:

Astronomy

Oct. 24, 2012 Rise Set
Actual Time 7:35 AM BST 5:44 PM BST
Civil Twilight 7:01 AM BST 6:18 PM BST
Nautical Twilight 6:22 AM BST 6:57 PM BST
Astronomical Twilight 5:44 AM BST 7:35 PM BST
Moon 3:21 PM BST (10/24) 1:41 AM BST (10/24)
Length of Visible Light 11h 17m
Length of Day
10h 09m
Waxing Gibbous, 74% of the Moon is Illuminated
Oct 24
Waxing Gibbous
Oct 29
Full
Nov 7
Last Quarter
Nov 13
New
Nov 20
First Quarter

Hourly Weather History & Observations

Time (BST) Temp. Dew Point Humidity Pressure Visibility Wind Dir Wind Speed Gust Speed Precip Events Conditions
8:20 AM 53.6 °F 53.6 °F 100% 30.09 in 1.0 mi NNE 6.9 mph - N/A   Overcast
8:50 AM 55.4 °F 55.4 °F 100% 30.09 in 1.0 mi NE 6.9 mph - N/A   Overcast
9:20 AM 55.4 °F 55.4 °F 100% 30.09 in 1.0 mi NE 8.1 mph - N/A   Overcast
9:50 AM 55.4 °F 55.4 °F 100% 30.12 in 1.0 mi ENE 6.9 mph - N/A   Overcast
10:20 AM 57.2 °F 55.4 °F 94% 30.12 in 2.2 mi ENE 9.2 mph - N/A   Overcast
10:50 AM 57.2 °F 57.2 °F 100% 30.12 in 2.8 mi ENE 10.4 mph - N/A   Overcast
11:20 AM 57.2 °F 55.4 °F 94% 30.12 in 3.1 mi East 12.7 mph - N/A   Overcast
11:50 AM 57.2 °F 55.4 °F 94% 30.12 in 3.1 mi ENE 13.8 mph - N/A   Overcast
12:20 PM 57.2 °F 55.4 °F 94% 30.09 in 2.2 mi ENE 11.5 mph - N/A   Overcast
12:50 PM 57.2 °F 55.4 °F 94% 30.09 in 1.6 mi ENE 12.7 mph - N/A   Overcast
1:20 PM 57.2 °F 55.4 °F 94% 30.09 in 1.6 mi NE 16.1 mph - N/A   Mostly Cloudy
1:50 PM 57.2 °F 55.4 °F 94% 30.09 in 1.6 mi ENE 15.0 mph - N/A   Haze
2:20 PM 57.2 °F 55.4 °F 94% 30.06 in 1.6 mi ENE 16.1 mph - N/A   Haze
2:50 PM 57.2 °F 55.4 °F 94% 30.06 in 1.9 mi ENE 16.1 mph - N/A   Haze
3:20 PM 57.2 °F 55.4 °F 94% 30.04 in 1.9 mi ENE 13.8 mph - N/A   Haze
3:50 PM 57.2 °F 55.4 °F 94% 30.04 in 1.9 mi ENE 16.1 mph - N/A   Haze
4:20 PM 57.2 °F 55.4 °F 94% 30.04 in 1.9 mi ENE 15.0 mph - N/A   Haze
4:50 PM 57.2 °F 53.6 °F 88% 30.04 in 1.9 mi ENE 16.1 mph - N/A   Haze
5:20 PM 57.2 °F 53.6 °F 88% 30.04 in 1.9 mi ENE 13.8 mph - N/A   Haze
5:50 PM 55.4 °F 53.6 °F 94% 30.04 in 1.9 mi ENE 11.5 mph - N/A   Haze
6:20 PM 55.4 °F 53.6 °F 94% 30.04 in 1.2 mi ENE 13.8 mph - N/A   Haze
6:50 PM 55.4 °F 55.4 °F 100% 30.04 in 1.2 mi ENE 11.5 mph - N/A   Haze